Regional Weather Roundup
Issued by NWS

Home | Current Version | Previous Version | Graphics & Text | Print | Product List | Glossary On
Versions: 1 2 3 4 5 6 7 8 9 10 11 12 13 14 15 16 17 18 19 20 21 22 23 24 25 26 27 28 29 30 31 32 33 34 35 36 37 38 39 40 41 42 43 44 45 46 47 48 49 50
189
ASUS43 KFSD 221702
RWRSD

WEATHER ROUNDUP FOR SOUTH DAKOTA
NATIONAL WEATHER SERVICE SIOUX FALLS SD
1200 PM CDT TUE MAY 22 2018

NOTE: "FAIR" INDICATES FEW OR NO CLOUDS BELOW 12,000 FEET WITH NO
SIGNIFICANT WEATHER AND/OR OBSTRUCTIONS TO VISIBILITY.


SDZ001>005-009-010-012>017-221800-
NORTHWEST AND NORTH CENTRAL SOUTH DAKOTA

CITY           SKY/WX    TMP DP  RH WIND       PRES   REMARKS
BUFFALO          N/A     74  54  49 NE12      29.90F
MOBRIDGE       SUNNY     75  62  64 S9        29.93S
$$

SDZ012>016-024>037-041>051-057-063-072>074-221800-
SOUTHWEST AND SOUTH CENTRAL SOUTH DAKOTA

CITY           SKY/WX    TMP DP  RH WIND       PRES   REMARKS
RAPID CTY ARPT SUNNY     73  57  57 VRB5      29.97S
PIERRE         SUNNY     74  63  68 SE6       29.93F
CUSTER         SUNNY     70  39  32 SE3       30.06F
ELLSWORTH AFB  SUNNY     73  55  53 NE7       29.97S
PHILIP         SUNNY     76  63  64 SE10      29.93S
PINE RIDGE     SUNNY     79  54  41 NE7       29.95S
SPEARFISH      FAIR      70  50  49 CALM      30.01R
WINNER         FAIR      76  62  62 SE8       29.95S
$$

SDZ004>011-016>023-039-040-221800-
NORTHEAST SOUTH DAKOTA

CITY           SKY/WX    TMP DP  RH WIND       PRES   REMARKS
ABERDEEN       SUNNY     79  56  45 SE8       29.96F
WATERTOWN      SUNNY     73  56  54 VRB7      30.00F
BROOKINGS      SUNNY     74  58  57 VRB6      30.01F
SISSETON         N/A     73  58  59 MISG      29.99F
$$

SDZ017-020-022-023-036>040-048>070-221800-
SOUTHEAST SOUTH DAKOTA

CITY           SKY/WX    TMP DP  RH WIND       PRES   REMARKS
SIOUX FALLS    MOSUNNY   75  62  64 SE12      29.99F
HURON          SUNNY     77  60  55 S9        29.96S
CHAMBERLAIN    SUNNY     78  65  62 SE13      29.94S
MITCHELL       SUNNY     78  62  57 SE13      29.96S
YANKTON        MOSUNNY   74  64  71 SE13G20   29.97S
$$

ABBREVIATIONS USED IN REMARKS
   TC - TEMPERATURE IN CELSIUS
  WCI - WIND CHILL INDEX
   HX - HEAT INDEX
  VSB - VISIBILITY





USA.gov is the U.S. government's official web portal to all federal, state and local government web resources and services.